Theta_e
322 323 325 328 329 330 329 328 328 329 331 330 331 331 331 331 332 331 331 330 330 330 330 329 329 329 330 331 331 330 328 320 320 318 314 318 328 330 330 329 329 329 326 316 318 318 313 309 307 307 305 303 301 301 302 305 302 302 295 288 289 287 289 291 291 291 289 292 293 293 294 295 292 295 301 305 308 306 307 309 309 313 312 314 316 319 326 324
321 322 324 326 327 329 329 328 329 329 330 331 331 330 330 331 332 331 331 330 330 330 330 330 329 329 330 330 330 329 322 319 317 316 315 329 333 332 331 331 331 328 324 314 312 316 315 309 306 306 303 301 307 300 303 303 304 295 291 290 291 289 292 294 292 294 292 293 295 295 292 296 296 297 298 301 301 305 306 309 308 310 312 315 317 322 323 323
319 320 321 325 327 328 329 328 328 329 329 330 330 330 330 330 330 331 330 330 330 330 330 329 330 329 329 329 329 327 321 316 316 313 318 335 334 333 332 332 329 327 316 312 312 312 311 309 308 306 303 303 299 297 299 299 303 297 295 291 290 294 294 294 292 295 294 294 294 294 293 293 296 297 296 299 300 300 301 306 306 308 309 313 318 321 321 323
317 319 321 324 326 328 328 328 328 329 328 330 330 330 329 328 330 331 331 330 329 329 329 329 329 328 328 328 328 322 318 313 308 313 322 335 334 334 334 332 330 322 316 315 314 312 314 312 308 307 304 300 298 301 297 297 298 296 296 293 294 294 295 295 292 294 293 294 296 295 293 294 294 295 297 297 299 298 299 306 308 309 311 315 319 320 320 321
318 318 319 322 324 327 328 328 328 328 329 329 329 329 328 329 329 330 330 330 329 329 329 329 328 328 327 327 326 322 312 301 304 317 325 334 334 335 334 330 327 317 316 315 315 313 313 312 310 305 307 302 296 296 295 297 299 298 296 296 296 293 295 293 291 291 293 292 295 292 295 294 294 295 296 301 296 296 300 302 307 311 316 317 318 319 320 320
319 319 319 320 323 325 327 328 328 328 328 329 329 329 328 328 329 329 330 330 329 329 329 329 328 327 327 326 323 317 308 290 314 315 334 335 335 334 333 332 327 318 317 315 315 315 313 310 312 307 305 303 295 293 295 297 300 294 294 294 294 293 295 294 293 293 293 293 294 293 295 294 294 294 295 300 297 294 295 301 308 315 318 320 321 320 319 319
317 318 319 320 321 324 327 327 328 328 328 329 329 328 329 328 329 329 329 329 329 329 329 328 327 327 326 325 320 315 306 307 308 314 332 334 335 333 333 332 325 318 317 314 315 314 312 309 310 301 304 302 301 294 297 296 297 297 294 292 295 293 295 293 293 292 292 295 296 294 293 295 292 293 292 296 294 291 295 298 312 316 316 320 319 320 320 320
318 317 320 321 322 321 324 327 328 328 328 328 328 327 327 328 328 329 329 329 329 329 329 328 327 326 325 319 315 310 307 306 313 316 332 333 331 329 326 320 320 320 318 314 314 311 313 311 308 305 306 303 296 298 297 295 296 294 294 295 294 294 293 292 290 291 292 293 290 292 294 294 292 292 292 295 297 294 302 311 317 317 318 318 319 319 319 319
319 318 319 321 321 321 322 326 328 328 328 328 328 327 328 327 327 329 329 329 329 329 328 328 326 326 325 319 312 308 307 316 315 320 330 328 325 322 322 319 320 319 315 314 315 313 314 309 309 307 304 302 302 297 297 294 292 294 296 296 293 294 292 291 292 291 292 293 292 294 292 292 291 294 292 296 296 295 305 315 317 317 317 317 318 319 319 319
318 318 318 319 322 321 322 324 326 327 327 327 328 328 328 328 327 328 328 329 328 329 328 327 327 326 320 314 311 303 312 316 321 326 328 325 322 321 321 319 320 317 314 313 313 313 313 311 311 307 306 306 304 297 295 295 295 295 295 295 296 294 293 292 293 292 292 294 292 295 291 293 292 292 291 293 293 304 312 314 315 316 316 317 317 318 319 319
317 318 318 319 321 322 321 323 325 327 327 327 327 327 328 327 325 327 328 328 328 328 328 327 326 323 316 315 307 302 314 318 321 326 326 323 320 319 317 318 320 317 315 312 312 315 313 309 309 308 310 307 304 298 295 296 295 296 295 292 293 292 293 292 292 291 292 295 291 293 292 291 291 292 289 292 294 308 312 313 314 315 316 317 317 318 318 319
318 318 318 319 321 322 322 321 324 325 326 327 327 327 328 326 326 327 327 328 328 328 327 327 326 322 317 312 306 306 310 317 322 325 324 322 319 319 318 318 319 319 315 311 312 314 312 311 312 311 303 308 302 298 296 295 298 296 293 291 290 292 294 294 292 292 292 294 291 290 293 291 292 290 291 290 302 308 312 313 314 314 315 316 317 317 317 318
318 318 318 319 320 322 323 322 323 325 326 326 327 327 327 327 326 327 327 327 328 328 327 327 325 321 315 306 309 308 311 320 322 322 321 320 319 319 318 318 318 318 317 313 311 314 314 314 315 310 309 306 301 298 295 298 295 294 293 291 290 290 289 292 292 292 292 293 290 294 286 287 292 293 291 292 307 307 309 311 313 313 314 315 315 316 317 317
318 318 318 319 319 321 323 323 324 325 325 326 326 326 326 326 327 328 327 327 328 328 327 327 323 319 313 307 309 312 314 321 322 320 318 320 318 314 316 316 317 316 318 315 314 315 313 317 318 312 310 306 302 302 298 296 295 292 290 292 285 286 284 289 293 292 292 292 291 292 287 285 289 292 292 292 306 309 308 310 311 311 311 313 314 315 316 317
317 317 318 318 319 320 321 323 324 325 325 325 325 325 325 325 325 326 327 327 328 328 327 326 322 315 309 307 309 312 323 321 317 316 318 317 314 312 312 314 313 314 314 314 313 314 313 312 313 310 305 306 305 298 292 289 289 289 289 284 285 285 284 287 291 291 293 292 290 292 286 287 288 290 288 290 300 306 306 307 309 309 310 311 312 314 315 316
316 317 317 318 318 320 321 321 323 325 325 325 325 324 324 324 325 325 326 326 327 326 325 318 317 315 308 302 307 320 318 312 312 316 315 317 315 311 312 311 313 313 312 312 314 314 312 314 308 306 306 306 302 296 291 288 287 288 288 280 283 283 286 287 292 289 291 291 292 290 286 285 291 288 287 289 299 303 303 304 306 307 307 309 311 312 313 314
315 316 316 317 318 319 321 321 321 323 324 324 324 323 323 324 324 326 326 326 325 324 320 313 316 316 302 307 316 312 310 309 314 312 313 313 313 311 310 309 309 309 311 311 312 311 309 307 306 305 304 301 298 295 287 284 282 283 283 284 282 285 285 285 286 290 290 291 291 290 288 286 288 287 288 290 296 298 300 300 302 305 305 307 308 309 311 312
315 315 316 316 317 319 320 321 321 322 323 323 323 322 322 324 326 325 324 322 318 315 314 316 315 310 302 305 301 307 313 311 313 312 311 311 312 311 309 307 308 308 307 305 308 307 308 302 306 299 297 297 296 291 285 282 283 281 284 283 283 284 285 287 287 289 291 291 290 289 286 289 290 288 288 290 290 296 299 299 299 300 300 301 301 304 307 310
314 315 315 316 317 318 320 321 321 322 322 323 324 324 325 325 323 320 312 312 310 305 302 302 306 296 294 300 307 310 311 313 315 312 307 309 310 310 310 311 308 304 301 302 301 304 304 300 301 296 293 294 294 293 288 286 285 285 284 284 282 285 284 285 288 288 292 289 288 287 290 291 292 290 288 289 288 291 295 292 291 292 294 295 296 298 301 305
313 315 315 316 317 318 320 321 321 322 323 321 320 320 317 310 306 303 309 312 308 306 308 306 310 301 301 304 305 309 315 317 310 311 309 310 308 306 306 307 303 308 301 298 299 302 302 295 293 293 296 297 296 294 290 290 290 289 286 286 285 286 286 287 287 289 289 289 288 288 290 289 290 290 290 290 288 289 290 291 291 290 291 294 295 296 298 301
313 314 315 315 317 318 320 321 321 322 322 320 318 312 301 304 298 294 303 306 304 304 307 307 303 300 301 305 307 309 307 305 309 310 308 311 308 306 300 303 300 296 299 300 297 304 302 295 294 297 298 298 296 291 289 290 290 288 287 285 285 286 287 289 290 290 288 289 289 287 286 288 289 290 289 289 289 291 291 291 291 291 290 292 294 295 296 299
313 314 315 315 317 318 320 321 321 321 322 319 316 310 309 310 313 312 309 298 300 301 309 303 302 300 304 306 310 312 309 303 305 308 313 308 304 300 299 300 297 293 297 297 297 295 294 293 297 299 297 295 294 292 290 290 289 287 287 287 285 285 286 288 288 289 288 289 287 284 287 289 290 290 289 288 291 292 293 292 294 293 292 291 291 294 295 295
313 314 315 316 316 318 319 321 320 320 318 314 312 311 310 312 315 315 311 302 297 303 302 299 298 299 300 304 306 310 304 302 301 305 308 306 301 298 299 296 296 295 295 296 293 291 289 293 298 297 295 292 291 289 289 288 288 287 285 285 285 286 286 284 287 288 287 286 286 285 285 288 288 286 287 290 291 291 291 292 292 292 293 292 292 293 295 295
313 314 315 316 317 318 320 320 321 318 315 313 312 312 313 313 314 313 307 296 294 299 300 300 301 300 299 300 303 304 304 302 303 300 310 303 299 300 298 297 294 294 293 295 295 292 292 295 297 296 294 293 291 290 288 287 286 287 288 285 285 286 286 285 287 286 287 286 284 283 284 285 285 288 289 291 290 290 291 290 290 291 291 292 291 291 292 295
312 313 314 315 316 318 319 320 314 313 316 314 312 313 314 315 314 311 302 295 294 295 304 302 303 303 302 305 303 302 300 302 303 306 307 304 298 298 296 300 297 292 293 295 295 292 293 295 297 295 294 291 291 289 289 288 285 285 287 288 288 286 288 285 287 288 285 286 287 288 282 280 280 284 288 292 288 289 289 291 292 293 292 290 291 292 292 293
312 313 313 314 316 317 320 312 311 315 313 310 313 312 315 314 315 310 303 289 284 292 300 292 305 298 307 299 299 299 304 294 299 305 304 301 305 300 297 295 297 291 293 293 293 294 295 295 295 294 293 292 290 289 290 289 287 284 285 288 289 289 289 286 286 287 281 281 285 284 283 275 279 284 287 286 285 289 288 288 292 292 292 291 292 293 293 293
312 313 313 314 316 318 311 306 316 315 307 309 312 314 314 314 312 307 300 286 284 292 292 299 299 298 304 300 299 303 291 291 300 302 301 304 300 302 294 293 293 294 295 296 292 289 294 294 293 293 293 292 290 287 290 290 287 284 287 287 290 288 287 286 288 287 279 282 286 283 281 279 280 285 282 280 283 286 287 289 289 291 291 292 292 292 292 293
312 313 313 314 317 316 313 315 312 309 310 312 313 315 315 311 310 306 295 280 278 298 291 294 297 305 304 301 301 296 294 300 295 298 301 301 300 297 296 292 292 292 294 294 285 294 294 292 292 290 290 290 288 291 292 290 288 285 288 289 289 290 289 288 288 284 282 284 282 282 283 282 277 281 282 282 284 284 286 288 290 291 292 292 292 292 292 293
312 313 313 315 317 318 318 314 312 309 313 312 313 314 312 311 306 298 286 279 290 288 306 292 304 301 298 299 296 293 297 301 294 299 301 301 302 297 291 292 293 294 295 294 289 288 293 294 294 294 291 287 291 292 290 290 288 289 290 291 289 288 287 287 285 285 284 282 282 281 282 280 278 279 281 281 283 283 285 288 290 291 293 292 291 291 292 292
312 313 314 315 316 315 315 315 313 314 311 313 312 311 311 308 298 287 282 274 292 284 295 294 296 292 297 292 291 293 296 294 293 296 299 295 299 299 294 299 295 293 292 294 292 292 291 295 298 294 291 294 294 292 290 290 290 293 291 290 287 285 284 281 282 280 282 276 283 281 281 282 279 282 286 285 286 288 289 288 287 287 288 289 291 292 292 293
313 314 314 316 311 314 314 307 310 311 313 312 312 310 307 300 288 283 278 283 291 290 293 292 290 296 292 290 287 291 295 292 295 297 293 295 293 295 295 294 297 292 289 290 289 292 291 292 292 294 295 292 294 291 291 291 293 293 288 285 287 285 282 283 280 281 278 278 277 278 279 279 279 278 282 285 283 283 288 289 290 287 287 289 289 289 291 293
313 315 316 315 316 317 309 305 309 312 311 312 310 304 299 284 287 281 278 295 283 287 288 288 293 292 291 292 289 290 290 292 295 295 292 292 291 290 291 287 290 283 283 285 285 290 288 289 292 294 295 294 291 291 290 292 291 290 288 288 284 278 279 276 278 276 278 277 278 277 278 279 281 282 282 281 284 287 285 287 289 287 287 287 288 290 292 293
315 316 317 316 316 313 314 312 312 311 312 311 306 302 292 284 276 284 282 287 282 291 288 294 290 291 291 289 287 288 291 289 294 294 294 293 291 290 292 290 292 288 281 286 285 285 286 290 290 292 292 293 293 288 286 286 288 287 288 285 283 275 273 274 271 268 269 274 277 280 281 278 279 282 289 289 291 288 286 286 286 286 287 288 289 290 293 293
316 317 315 316 315 314 312 311 311 312 310 308 302 295 289 282 280 289 285 285 286 291 292 290 291 291 290 287 287 291 288 290 293 292 293 290 290 287 289 288 292 288 286 286 284 284 280 282 288 290 288 293 292 293 292 289 288 288 286 289 282 277 271 271 267 274 274 275 275 277 277 273 279 284 284 289 288 283 284 286 287 288 289 289 288 291 291 292
317 316 316 316 313 311 310 311 311 312 309 304 296 290 282 282 285 282 283 284 287 290 288 293 289 288 287 286 288 290 288 285 291 292 290 289 287 288 287 288 290 290 287 284 286 285 284 284 288 292 291 291 291 292 291 290 288 287 286 287 284 284 280 277 273 272 269 273 272 274 276 278 282 283 285 285 285 286 286 288 289 291 291 290 291 292 294 294
315 313 315 309 308 309 311 311 312 311 306 300 292 286 284 287 283 287 285 291 290 287 288 290 289 286 285 285 287 288 290 286 289 290 288 289 290 288 290 289 288 291 289 285 286 282 284 283 288 290 290 289 291 290 290 292 284 287 285 285 285 285 283 277 276 276 275 273 273 272 277 279 280 285 283 283 286 288 286 288 290 291 290 290 291 292 293 294
309 310 305 306 307 311 311 312 311 309 304 297 289 285 289 288 288 290 293 290 290 291 289 283 284 285 284 283 285 287 287 290 289 290 286 289 286 289 289 290 292 291 293 290 285 286 284 284 287 288 287 291 290 290 292 288 291 285 282 285 287 286 285 282 277 269 268 272 274 273 277 278 278 280 282 283 286 288 285 286 286 288 288 290 292 292 293 294
306 306 305 305 308 311 312 312 311 307 301 294 287 289 287 288 290 290 291 291 291 292 289 286 286 290 285 285 284 286 288 288 286 287 285 289 285 294 290 289 291 292 293 291 289 285 289 281 285 287 289 291 291 291 291 291 291 289 287 289 287 281 281 280 277 270 269 269 266 271 275 275 277 282 279 285 285 288 289 286 286 289 290 291 292 292 290 290
306 304 298 305 311 311 311 312 308 303 297 289 287 286 288 287 290 290 293 293 294 291 288 288 286 288 289 286 287 288 288 284 288 286 285 286 284 290 291 292 289 291 293 292 289 285 289 281 282 288 288 290 289 290 285 286 291 289 289 287 287 286 283 279 278 275 276 270 269 271 275 277 279 279 279 286 287 289 287 285 288 291 291 292 292 293 293 292
303 299 296 308 311 311 311 310 303 299 294 287 288 286 290 287 287 293 294 294 290 291 288 288 290 287 288 288 289 286 288 288 287 286 287 288 287 289 291 293 290 290 292 293 290 291 286 286 279 285 288 288 285 287 287 288 285 286 286 283 285 283 285 282 279 275 276 269 267 266 269 274 279 282 284 289 289 289 288 289 290 291 292 291 291 292 293 293
304 298 296 309 310 311 309 304 296 291 290 292 293 287 287 288 289 292 294 296 293 290 289 290 289 287 288 287 287 290 287 287 287 286 286 284 288 282 290 293 291 289 289 291 289 289 286 285 282 283 283 285 286 288 287 288 289 287 286 283 284 282 280 279 280 278 270 273 269 266 273 274 281 283 289 290 291 288 287 288 289 289 290 291 291 291 291 292
298 291 294 308 310 309 302 292 292 295 292 288 287 288 288 296 290 291 293 294 294 290 291 289 289 288 289 289 289 288 287 286 287 286 285 284 289 287 288 293 293 292 291 287 288 287 287 285 284 280 283 286 287 289 288 288 287 287 287 286 287 285 283 278 278 278 274 274 275 269 271 276 284 281 285 287 284 284 284 286 288 289 289 291 292 291 290 291
297 292 304 308 310 306 298 290 292 291 288 291 292 290 292 291 290 291 292 292 290 285 289 289 289 288 287 289 289 288 288 284 287 286 287 285 287 288 288 293 294 292 294 286 290 288 292 285 283 281 285 286 288 289 287 287 288 288 287 285 285 285 284 284 281 279 279 276 275 274 272 276 281 280 281 281 281 282 284 284 286 287 287 289 291 291 290 290
295 295 298 307 310 305 295 285 284 287 289 290 290 289 291 289 291 289 291 291 290 288 290 289 288 292 289 292 291 287 290 282 286 286 283 283 286 285 288 291 294 292 292 289 290 292 285 283 286 278 279 281 284 287 288 287 287 285 284 284 284 283 280 280 277 276 278 277 281 276 276 272 282 280 280 280 282 283 284 284 285 287 287 288 290 291 291 290
297 299 300 302 307 303 292 293 290 288 289 288 288 287 288 288 291 293 292 291 287 288 290 288 291 291 289 292 291 291 291 288 284 287 284 285 288 286 289 292 295 293 294 293 296 294 289 284 285 279 277 276 276 277 280 284 284 284 283 283 283 286 282 282 279 277 276 275 278 273 270 277 281 280 281 282 282 284 284 284 283 285 287 289 289 291 291 291
293 285 294 296 301 299 295 294 294 291 289 288 287 286 287 286 288 292 293 289 287 287 287 287 287 291 288 290 288 288 288 288 288 284 286 285 285 286 287 291 294 294 294 296 294 293 284 285 287 286 284 282 283 283 285 287 283 284 284 283 284 285 285 285 282 277 278 274 276 277 279 281 282 284 283 283 283 285 286 285 287 287 286 288 289 291 291 291
297 290 290 287 296 295 293 293 291 293 288 291 286 288 286 287 288 288 290 289 288 290 287 290 289 288 287 289 287 287 288 285 284 287 286 287 286 286 287 289 291 292 295 293 294 290 284 284 286 287 287 287 285 285 287 290 286 287 286 285 285 285 285 285 283 282 282 278 275 277 279 280 283 283 282 283 283 284 285 285 286 285 287 288 289 289 291 290
290 291 295 296 289 285 288 289 294 292 293 292 285 288 287 286 287 286 287 288 289 289 289 286 290 291 290 289 289 285 285 284 285 285 286 284 284 286 289 289 290 292 294 291 293 291 286 285 286 286 286 286 286 287 289 289 289 288 288 288 286 286 285 284 285 288 284 282 282 285 281 281 284 285 285 286 286 287 287 287 287 287 287 287 287 288 290 291
292 291 290 294 290 292 292 293 294 292 290 291 285 288 286 287 286 288 286 286 288 287 290 285 287 289 290 291 289 286 286 283 281 285 286 285 287 286 285 286 289 289 292 289 289 285 288 284 285 286 284 284 284 285 287 288 287 287 288 288 289 287 286 287 288 289 287 285 287 286 283 283 285 283 285 288 287 286 285 285 288 288 288 289 289 290 290 291
291 292 289 291 291 293 293 293 293 292 289 291 286 287 288 287 286 286 286 288 285 288 289 289 288 289 290 290 290 287 288 289 288 285 288 288 286 288 287 288 285 285 288 289 288 285 288 282 288 285 282 282 283 283 285 286 286 285 287 288 289 289 288 288 288 288 287 286 286 284 282 283 285 287 288 287 285 284 285 286 288 289 289 290 290 291 291 292
289 289 295 292 289 290 293 293 292 291 288 289 286 286 288 288 287 289 287 288 289 288 288 288 289 289 290 290 290 290 291 291 291 290 290 290 286 291 289 285 289 287 286 287 286 285 285 280 284 284 281 278 281 283 284 285 285 284 284 285 286 287 285 287 286 287 285 284 285 283 283 284 287 284 286 286 287 287 287 288 288 289 290 290 291 292 292 292
292 291 292 295 289 293 290 292 292 291 286 289 288 286 288 288 289 290 289 288 287 288 289 289 290 290 287 289 288 290 292 290 291 291 293 291 292 289 289 290 292 290 286 285 284 284 283 282 281 280 281 275 281 281 283 284 283 282 283 286 287 286 288 288 288 288 289 289 285 283 284 290 288 288 290 288 287 288 288 290 289 288 289 291 292 292 293 294
Wind_Speed
8 13 14 15 19 21 25 24 26 25 26 29 25 25 25 24 23 23 23 21 20 20 19 18 17 15 14 14 12 10 7 3 1 1 3 3 6 9 9 8 5 3 6 5 8 6 7 10 13 12 10 6 4 4 4 2 1 1 0 4 1 3 3 5 5 8 2 5 5 4 7 8 4 1 1 3 6 3 1 1 3 2 2 3 1 4 11 10
8 11 12 17 17 16 23 25 27 26 25 25 24 25 23 26 23 22 23 21 21 20 19 18 17 16 14 14 14 11 5 1 4 2 8 5 15 14 12 9 8 4 8 10 7 5 9 7 8 9 9 6 2 2 4 1 1 1 1 2 6 4 6 6 4 6 3 4 7 7 5 8 8 9 3 4 1 2 2 1 2 1 3 3 3 9 12 11
7 8 13 15 18 15 17 23 21 23 24 25 25 25 25 25 24 22 22 21 22 21 20 19 18 17 16 15 14 11 5 1 0 9 4 11 15 14 12 10 7 6 6 10 4 8 8 7 4 7 4 5 5 4 4 3 1 1 3 3 5 7 4 5 4 5 5 2 5 6 5 2 6 5 2 4 6 1 7 5 1 3 2 4 7 10 11 11
6 8 11 11 14 13 15 21 23 23 23 23 25 25 24 25 23 23 22 21 22 21 20 19 19 18 17 18 15 7 4 3 7 2 6 13 14 13 13 14 14 14 14 11 6 8 6 6 10 9 3 4 5 1 3 2 1 1 1 3 4 3 2 4 7 7 5 5 6 6 2 3 3 3 5 5 6 5 6 6 10 12 8 9 12 12 11 11
8 8 9 11 11 14 15 18 23 26 25 23 25 26 24 24 24 24 22 22 23 22 22 20 20 19 18 17 15 8 7 2 5 6 10 16 13 13 13 13 11 8 13 11 11 7 8 7 5 5 4 2 4 4 2 3 0 1 5 4 1 1 1 6 6 4 5 5 6 3 10 7 3 1 4 12 10 8 10 9 6 4 13 14 15 13 10 12
6 7 9 11 13 16 17 17 19 24 27 26 25 25 24 24 24 24 23 22 23 23 22 21 21 20 19 19 11 5 9 12 0 3 17 16 14 13 12 12 14 14 12 5 5 3 8 6 7 3 2 2 2 3 5 1 1 3 4 3 4 3 2 1 1 3 5 5 8 8 6 5 6 2 4 12 10 3 4 4 8 8 13 17 15 14 12 12
5 6 8 10 11 14 17 18 19 20 22 24 25 24 25 25 25 24 24 23 23 23 23 22 21 20 20 16 7 9 13 4 1 6 13 21 17 15 12 10 11 9 9 7 4 4 3 6 6 4 4 2 4 3 4 4 3 2 5 2 5 2 5 2 1 1 4 11 10 3 4 7 5 6 2 6 5 3 4 3 7 5 4 7 13 14 17 16
5 6 7 8 11 14 17 18 18 20 21 23 22 22 22 23 25 24 24 24 24 24 24 23 22 21 20 10 10 6 7 7 1 4 9 15 15 15 13 5 8 6 7 8 8 7 4 4 6 4 2 4 2 3 5 9 1 3 5 3 4 0 4 3 1 1 1 2 3 5 7 7 5 4 4 7 9 2 2 6 9 8 8 8 12 14 12 12
6 6 8 9 11 14 20 19 18 20 20 23 23 23 23 22 21 25 25 25 25 24 24 24 24 21 16 8 8 8 10 2 2 5 8 9 12 12 13 5 5 10 7 8 6 9 5 2 4 1 5 3 3 9 4 5 7 3 7 1 3 3 4 3 1 1 3 2 4 6 4 0 1 1 3 9 6 0 2 6 10 9 10 10 11 13 13 13
8 8 9 10 12 14 16 16 16 18 22 23 24 24 22 25 24 26 25 25 25 25 25 24 23 22 12 9 7 12 3 0 3 7 11 10 7 8 3 8 7 11 10 7 9 9 6 3 4 5 6 3 1 5 4 1 5 3 5 3 6 4 2 2 0 1 1 1 3 7 2 2 1 2 6 3 3 4 6 7 7 12 13 12 10 11 11 13
10 10 10 11 12 14 14 14 15 18 20 24 26 24 23 24 22 22 26 25 25 25 25 25 24 18 10 9 13 11 0 4 2 8 13 13 11 6 3 6 7 9 12 7 9 6 9 12 10 5 4 1 3 6 1 3 4 10 6 4 2 5 1 1 1 1 1 0 1 6 2 1 2 1 6 4 3 6 11 8 9 10 12 12 10 11 10 11
9 10 11 11 12 14 14 15 16 16 18 22 26 26 24 23 23 22 24 26 25 25 25 24 26 12 6 10 9 6 2 1 5 8 11 14 10 9 8 6 2 4 12 9 7 5 11 11 10 3 3 3 2 4 5 1 6 9 5 7 5 3 4 2 3 1 0 2 4 3 3 1 1 6 5 2 4 5 8 11 10 10 10 10 9 8 8 11
8 10 11 10 11 13 14 18 19 17 17 22 23 23 23 24 24 25 26 27 27 26 26 26 18 9 11 10 5 2 2 3 7 9 8 5 8 7 6 6 8 8 4 12 9 5 8 9 9 8 4 4 1 2 4 7 5 7 2 3 5 3 4 5 1 0 2 1 4 2 5 7 10 10 3 1 7 5 5 7 9 8 8 8 8 9 9 5
8 9 9 9 10 13 16 18 18 18 19 21 22 22 21 23 24 26 27 26 28 26 26 26 12 10 11 3 1 2 1 4 8 11 8 9 13 4 7 7 9 9 9 12 9 6 6 2 7 8 3 4 1 4 12 5 2 4 5 1 3 2 5 2 3 2 5 1 4 1 6 7 7 9 4 3 6 11 9 8 9 7 7 7 8 8 9 9
10 9 9 10 11 13 15 17 20 19 18 18 20 21 21 25 22 19 28 25 27 27 26 20 9 10 9 1 3 4 1 6 10 9 10 14 13 7 6 8 12 12 9 10 8 5 6 6 8 4 2 1 2 4 7 3 2 3 1 5 1 5 5 5 1 5 8 0 2 4 4 8 6 8 4 4 5 6 9 8 8 7 7 7 7 8 8 9
11 10 9 10 11 12 16 16 19 21 21 21 20 20 21 23 23 19 19 23 26 27 19 15 11 8 9 6 3 3 4 8 7 6 0 14 13 9 8 9 8 10 12 6 6 5 3 2 6 4 3 3 0 2 8 8 4 2 6 3 3 2 5 3 3 3 2 2 1 5 6 2 7 5 3 4 8 7 7 7 7 8 8 7 7 8 8 7
12 11 11 11 12 13 16 19 19 23 22 22 20 21 22 21 22 24 22 23 20 14 14 10 9 9 10 1 2 11 6 1 6 2 4 1 8 16 12 9 6 11 11 8 5 6 2 4 1 3 2 5 4 0 6 8 7 5 1 4 3 6 2 3 4 2 1 3 5 2 2 5 3 3 2 2 7 8 7 8 8 9 8 8 7 7 8 8
14 14 12 13 14 15 16 19 21 23 25 22 20 19 18 21 22 27 21 15 8 5 3 4 8 10 1 2 10 11 7 7 7 7 5 3 13 12 12 6 5 11 10 8 4 3 2 3 1 5 3 5 5 9 9 10 5 2 2 3 3 1 4 5 4 4 5 2 5 3 5 10 9 4 2 4 3 8 11 11 10 10 9 8 7 8 9 9
14 15 14 15 15 16 16 19 20 24 23 22 22 23 22 23 15 11 11 13 14 7 8 8 13 12 5 18 4 11 9 10 8 9 5 12 5 9 8 9 13 16 5 6 3 6 1 4 3 5 10 12 16 15 11 4 2 3 6 5 3 6 5 3 4 2 7 5 6 6 10 12 12 6 3 3 4 6 9 4 3 5 5 5 7 8 8 9
16 17 17 17 17 17 18 20 21 22 24 21 18 15 12 12 8 5 7 19 14 6 2 21 14 6 10 16 10 6 10 11 13 2 9 6 14 10 10 9 4 3 11 9 6 5 3 9 11 16 19 15 11 10 5 7 8 9 3 3 7 6 4 3 3 2 1 3 8 7 8 8 8 7 5 3 2 4 6 7 7 6 7 8 8 9 10 10
19 19 20 19 18 18 18 21 22 24 24 16 16 11 9 16 12 6 8 7 5 4 11 11 4 5 4 13 14 22 17 2 2 8 9 8 12 17 7 10 6 7 1 2 11 3 5 11 16 18 9 13 12 4 5 9 8 9 7 5 8 6 8 4 3 1 2 4 5 4 4 8 11 8 4 0 4 10 11 10 9 9 8 8 10 11 11 13
21 21 21 21 20 19 19 23 24 25 27 14 16 11 3 16 3 9 17 10 3 4 15 10 7 8 4 11 11 13 10 8 9 8 3 7 12 10 8 9 11 8 7 8 7 6 8 17 19 9 7 5 7 7 8 9 9 6 7 5 4 8 2 2 1 1 2 2 8 0 5 10 12 9 1 4 8 7 7 10 13 13 11 10 9 10 11 6
21 22 23 22 22 20 20 23 22 24 16 13 15 16 8 1 1 4 7 12 8 3 8 5 6 12 8 5 4 12 16 15 17 12 11 4 10 5 15 9 9 10 10 12 14 10 9 14 2 10 7 7 5 4 8 7 7 8 5 3 8 2 6 6 1 0 2 2 2 1 4 9 7 4 6 8 8 6 6 7 10 6 10 12 13 13 12 12
22 21 23 24 22 21 22 23 21 19 15 22 19 18 2 5 6 15 18 6 7 6 4 5 10 5 9 10 2 5 20 7 13 14 6 9 12 8 9 12 14 8 12 14 13 15 10 5 10 7 7 8 9 5 6 7 9 5 6 4 3 3 5 4 5 2 0 1 3 3 2 7 5 6 5 7 6 5 5 5 6 8 8 7 4 4 6 11
21 21 25 23 23 22 22 22 16 16 17 19 16 5 7 7 11 9 22 6 5 3 2 2 2 2 5 1 3 4 1 4 2 10 12 12 12 11 7 5 8 11 13 7 3 6 3 2 8 11 8 5 6 9 10 7 8 6 6 9 7 3 6 1 2 6 1 3 3 1 1 6 5 6 10 9 1 4 5 6 10 11 8 7 9 11 7 8
22 24 26 24 23 22 22 15 19 16 16 18 14 9 11 10 7 10 11 4 4 1 1 8 3 7 3 3 4 4 9 3 1 7 11 6 3 8 7 6 3 11 10 9 8 2 2 2 12 14 11 8 7 9 9 6 9 6 7 9 8 6 3 4 6 5 4 6 3 1 8 6 4 5 7 5 2 9 3 4 11 9 8 7 12 10 9 10
24 25 25 25 24 23 16 14 12 15 13 13 9 11 11 12 4 5 9 2 8 4 8 1 2 5 2 6 6 11 11 7 4 6 6 2 9 2 15 6 3 3 4 3 3 7 8 9 4 6 10 11 10 11 12 11 9 9 2 4 9 6 5 6 7 8 3 1 1 1 3 5 6 8 3 2 2 7 7 10 11 10 10 11 11 10 9 10
26 25 25 28 26 26 18 6 19 20 21 15 17 13 11 6 3 4 7 8 7 9 6 3 1 1 3 5 4 4 1 20 11 5 4 1 5 4 4 12 8 12 9 7 13 2 14 9 9 9 9 10 15 15 5 8 8 4 1 6 6 9 9 8 6 5 1 2 7 2 1 1 6 7 3 0 3 6 8 12 13 13 12 13 10 10 11 10
27 24 25 27 28 33 21 7 19 25 10 16 16 15 7 4 3 5 3 5 1 4 2 11 5 5 5 3 5 0 9 8 10 10 3 2 3 4 5 5 6 11 8 7 3 0 3 12 10 9 9 14 10 5 6 9 8 4 3 4 4 5 4 3 5 5 1 1 10 7 5 5 7 5 4 1 1 6 8 10 12 14 15 11 10 10 9 6
29 25 27 29 25 23 17 7 14 9 19 19 18 12 10 8 5 5 7 4 4 7 5 4 7 13 11 12 4 2 16 3 3 6 6 4 1 3 1 7 8 10 7 4 4 3 2 4 6 7 11 6 3 7 6 9 6 4 4 5 4 5 3 3 4 3 3 6 13 6 8 6 7 6 9 7 8 9 10 8 6 6 7 9 11 11 9 8
29 26 30 31 21 15 13 10 7 14 17 17 18 16 13 4 6 4 8 4 5 3 5 7 6 13 17 16 11 2 12 5 10 15 8 2 3 5 6 8 4 5 4 6 6 4 3 2 3 3 4 3 1 4 1 2 0 9 2 4 4 2 3 2 1 1 5 11 2 1 5 3 11 4 5 7 3 4 7 9 10 6 6 8 7 7 7 6
27 29 33 27 20 17 20 13 15 15 17 22 23 14 14 7 1 5 6 6 9 10 15 12 12 15 19 14 7 14 15 8 14 15 15 12 11 12 13 11 12 9 8 11 11 3 1 5 2 2 3 8 4 2 1 1 1 4 3 6 9 3 2 3 1 5 11 9 0 1 2 1 13 6 6 5 7 7 7 7 7 6 7 6 7 8 6 5
27 31 35 27 21 14 16 13 15 19 19 19 19 11 11 8 10 4 8 12 2 15 9 15 21 22 19 13 10 4 2 16 11 14 14 10 9 6 3 5 7 5 8 11 6 5 4 2 2 4 2 5 7 11 6 4 6 7 10 8 10 5 4 7 4 2 4 5 3 0 0 5 2 7 13 13 14 8 6 8 6 6 8 7 6 5 5 5
31 33 26 22 18 14 10 16 15 20 24 16 18 10 5 9 7 2 15 7 9 3 13 11 18 16 18 13 12 12 10 2 17 12 13 11 8 10 8 5 14 7 5 9 11 12 7 5 11 11 10 7 10 10 8 2 8 10 1 8 7 5 5 6 4 9 8 6 1 3 3 7 6 8 2 10 7 4 5 5 5 7 8 8 5 4 4 4
35 31 23 19 13 11 20 17 21 20 19 16 17 14 13 5 4 13 11 5 7 9 10 11 19 19 12 4 0 1 1 6 5 15 13 15 12 10 14 12 12 8 4 11 4 2 14 4 1 7 1 8 8 3 3 4 4 7 3 3 5 10 6 3 5 4 2 2 1 1 6 3 5 2 6 4 6 6 3 4 2 5 3 2 3 5 7 6
30 21 19 12 13 15 20 18 19 20 18 18 15 13 14 9 10 6 10 13 16 16 17 15 13 15 7 6 3 5 4 5 8 7 6 12 14 15 10 5 9 13 12 10 7 8 4 7 0 3 2 4 7 5 3 5 8 4 4 11 6 2 8 6 3 0 2 3 6 3 5 5 8 8 3 4 3 7 4 4 2 5 3 1 5 5 5 6
19 16 12 12 13 20 20 20 18 18 15 18 14 15 10 1 1 10 9 21 22 26 25 23 12 14 14 9 8 7 3 8 10 10 9 6 4 8 9 9 11 11 12 8 3 2 11 3 1 6 6 1 1 3 2 1 1 5 7 7 1 2 4 4 5 2 1 5 6 3 7 2 2 7 3 3 2 9 6 6 5 3 3 5 7 5 6 7
16 14 12 12 16 19 21 21 21 17 14 14 15 12 1 4 0 7 7 13 14 17 18 17 12 20 21 20 16 15 9 16 13 7 9 14 4 15 14 10 10 12 13 5 7 4 6 2 1 1 4 3 2 2 1 1 2 4 5 2 8 4 6 1 4 2 2 3 4 1 2 4 5 7 3 3 5 9 12 6 3 6 6 9 6 5 5 3
15 15 9 14 18 20 19 20 18 14 15 13 13 8 2 1 4 8 14 18 22 22 18 9 16 7 15 18 21 19 22 16 18 13 13 9 9 11 19 12 8 10 12 10 6 2 3 4 1 1 2 2 1 4 10 5 1 2 0 2 1 2 3 4 6 3 4 4 0 6 1 5 6 6 6 6 9 12 5 1 9 10 9 7 7 7 8 7
17 12 6 15 17 18 19 18 15 12 12 17 12 3 4 3 3 15 15 24 12 14 8 16 14 18 17 13 19 18 12 17 21 14 13 11 10 2 20 12 8 12 14 12 6 6 5 2 3 1 1 1 6 3 9 8 6 1 2 4 2 0 2 3 2 4 4 5 5 2 2 5 7 8 8 11 11 11 9 10 9 10 9 8 6 7 7 7
10 9 5 16 19 18 17 14 14 15 14 5 10 4 4 3 4 11 18 18 9 3 4 13 14 16 19 16 13 11 8 11 14 14 9 4 14 6 10 19 11 12 7 9 7 6 4 5 7 2 2 7 2 1 2 3 4 4 6 6 6 4 3 6 10 3 2 2 4 4 8 5 9 4 12 15 13 1 4 6 7 6 6 7 7 7 7 7
14 12 9 19 22 23 19 14 4 7 6 11 12 3 4 6 9 13 16 12 12 7 3 5 3 6 13 19 25 17 14 15 14 9 7 10 17 5 5 15 13 15 15 12 12 2 5 3 7 4 5 6 1 0 2 2 1 2 2 5 5 3 5 4 9 6 2 1 5 3 0 7 6 3 7 7 3 2 2 2 7 6 7 7 8 6 5 5
13 7 8 20 21 26 19 8 6 9 4 3 4 4 1 5 10 12 17 11 10 3 6 6 10 11 4 7 13 13 15 6 18 16 13 7 9 9 9 17 17 16 13 4 6 5 7 4 6 3 1 2 2 1 2 1 1 2 3 2 2 6 4 5 4 5 7 1 1 1 4 7 5 1 4 5 5 5 5 4 8 6 4 5 5 6 6 5
9 12 13 14 20 21 21 13 15 9 6 5 4 4 1 3 11 11 12 14 8 7 11 9 7 9 14 11 15 16 14 8 8 9 2 1 5 7 13 14 23 13 16 11 15 9 5 2 8 3 3 3 5 4 5 1 2 4 2 1 1 2 4 2 4 1 2 6 8 6 12 2 4 3 3 2 5 5 6 6 6 9 5 4 5 4 4 5
10 6 8 10 11 12 18 11 18 12 12 14 11 4 5 2 10 18 19 17 3 4 7 7 12 12 6 16 15 13 16 5 9 7 3 8 6 1 14 17 24 15 14 10 10 8 6 5 10 9 11 12 13 17 20 19 12 1 1 0 2 5 5 3 4 1 5 2 4 3 5 8 9 5 3 3 4 6 6 5 4 6 5 4 4 5 6 6
9 11 9 10 10 5 2 3 10 17 17 18 13 3 4 7 4 9 11 4 1 3 3 5 4 7 6 13 13 11 13 1 10 7 7 6 3 2 8 17 21 14 12 17 14 13 3 3 8 11 14 17 11 4 4 10 4 8 3 2 3 2 1 1 3 3 8 3 6 7 6 4 5 5 5 5 3 6 6 4 3 4 4 3 3 4 5 6
7 9 12 9 6 4 3 3 9 11 14 16 13 7 9 8 8 5 7 8 4 7 2 6 7 10 8 16 12 12 12 4 3 14 14 14 3 3 3 10 12 10 16 12 14 7 4 5 11 14 13 6 3 3 4 10 5 7 6 5 5 5 6 6 8 8 5 4 9 5 4 5 10 7 8 8 6 6 7 7 6 3 3 4 3 3 3 4
7 4 11 12 9 8 12 9 14 10 11 16 4 4 8 12 12 12 3 2 5 6 11 1 11 15 21 22 18 13 11 5 8 14 8 2 5 2 7 2 9 10 16 6 12 9 8 12 8 8 8 6 7 8 12 11 12 11 13 11 9 8 7 10 9 13 6 8 14 9 8 8 9 10 9 9 7 4 1 3 5 5 2 3 4 4 6 7
3 4 2 2 5 16 14 15 17 16 17 14 3 8 7 14 17 12 7 5 6 7 10 12 18 20 24 18 16 11 15 9 5 6 12 11 16 12 8 2 3 3 12 7 8 2 8 8 6 10 5 5 5 7 9 14 9 10 14 16 15 12 12 14 16 15 14 13 13 9 7 15 8 5 8 8 2 2 3 2 1 3 4 5 5 6 8 9
10 16 8 2 3 9 7 13 19 21 18 17 9 11 10 15 18 6 2 7 8 11 6 15 20 19 22 20 19 17 23 25 25 18 14 21 11 12 14 14 9 2 3 12 8 1 8 4 10 6 5 5 0 3 3 7 7 10 13 17 20 18 18 18 16 15 12 12 10 2 5 12 7 9 8 5 1 1 1 2 5 4 3 5 6 7 8 10
4 3 7 14 9 4 13 14 13 16 14 13 9 5 7 13 15 11 3 1 11 11 10 21 20 17 15 19 18 20 24 20 16 21 18 21 19 15 14 5 11 15 7 7 5 1 3 0 2 6 8 4 1 3 4 4 2 4 7 11 15 20 21 17 14 8 7 12 10 8 10 14 6 3 5 5 5 2 4 6 6 4 5 5 8 9 10 11
4 1 3 8 11 15 14 10 12 15 13 13 6 6 7 17 11 12 7 1 1 2 5 7 13 15 9 14 19 18 13 6 7 6 11 4 5 6 4 8 13 15 6 4 2 6 5 7 5 5 8 3 1 3 5 4 2 6 15 19 17 12 11 9 12 13 18 17 13 13 17 10 6 7 9 6 5 7 7 8 7 5 6 8 9 11 12 12
Wind_Direction
244 260 247 227 214 205 215 201 204 211 193 196 194 188 180 179 179 176 170 168 163 164 165 164 161 159 151 139 131 130 134 119 123 171 172 236 143 139 142 144 154 108 77 53 32 43 42 35 17 357 5 21 335 11 318 24 23 44 155 114 166 198 148 213 173 190 213 140 212 190 198 140 164 189 185 52 40 46 14 69 314 346 340 226 258 173 134 133
235 258 259 236 221 207 210 208 200 206 201 194 189 189 188 181 179 177 172 165 163 163 161 159 158 152 143 139 133 134 103 83 188 197 213 134 130 135 138 140 146 128 60 46 52 72 75 28 32 20 25 5 339 310 2 281 20 100 100 110 222 177 237 159 202 195 133 224 180 187 187 171 189 141 211 122 226 154 125 296 2 344 354 47 99 139 127 143
258 247 261 242 222 209 207 214 197 204 204 194 193 186 183 181 178 177 173 165 162 161 158 157 154 148 146 137 139 123 102 39 332 231 221 152 134 127 128 129 121 94 90 113 36 83 106 134 81 68 37 6 7 315 9 292 11 229 125 251 249 209 238 216 184 202 198 126 150 186 208 190 190 147 144 162 174 222 189 178 329 187 188 156 149 141 140 150
251 249 255 266 227 207 208 213 201 196 210 196 188 190 188 180 177 176 173 165 162 159 157 155 152 149 147 144 136 132 92 52 241 184 169 164 145 128 115 111 109 103 94 76 109 93 119 104 71 73 39 44 308 334 353 282 56 277 113 194 237 202 201 258 196 230 205 162 186 172 98 144 202 163 152 144 124 246 251 228 174 189 176 163 161 151 150 157
221 240 254 255 251 220 206 205 207 197 204 203 189 189 187 182 177 175 171 166 161 159 156 153 153 148 148 145 143 134 110 159 244 167 168 162 150 130 119 118 117 108 103 126 89 77 74 71 85 61 74 320 324 328 265 337 145 111 215 212 172 110 197 262 204 214 188 174 131 147 149 208 123 66 141 154 173 208 212 219 239 193 161 157 162 162 156 164
224 240 234 254 246 233 213 206 194 204 203 196 190 186 187 186 176 174 170 164 162 157 155 152 150 152 147 149 139 127 154 200 125 193 158 154 141 131 122 119 118 114 114 76 96 89 64 19 71 51 60 72 309 342 278 323 1 277 304 274 216 221 241 283 286 207 161 139 149 177 200 101 153 185 191 176 191 229 227 204 186 171 177 167 158 155 164 170
225 246 245 248 258 251 223 206 196 202 206 197 186 186 185 188 179 173 169 165 162 158 155 152 151 150 152 136 129 162 196 247 96 296 177 149 145 136 129 124 120 115 103 97 79 76 65 75 78 123 90 23 304 278 283 337 329 227 262 316 310 179 232 345 297 10 204 157 191 168 113 150 156 174 189 198 240 250 313 208 141 136 128 151 156 172 173 176
211 240 246 237 246 246 240 209 199 198 207 200 184 183 185 188 180 173 169 165 162 159 155 154 152 153 143 134 139 199 193 227 233 334 158 135 130 125 119 106 122 119 122 129 124 110 103 95 129 120 63 155 238 327 313 328 312 247 276 265 271 238 249 309 280 199 153 176 98 127 142 195 175 181 108 231 231 308 360 120 123 137 147 174 171 175 177 179
209 228 244 238 225 229 238 216 198 198 205 206 183 186 181 184 189 174 169 165 162 159 156 153 155 155 149 138 153 153 214 182 205 159 124 121 125 130 131 121 161 134 129 125 122 138 132 241 101 174 181 150 345 332 335 14 318 202 236 233 308 285 320 315 355 157 149 139 129 112 172 279 223 63 197 220 231 236 144 119 134 142 156 178 187 182 179 185
223 219 236 243 232 219 236 214 204 200 203 209 193 179 181 182 186 180 169 165 163 159 157 155 153 156 150 146 138 193 190 96 125 149 131 116 107 118 87 144 149 121 117 128 110 136 182 183 127 96 106 42 193 260 344 91 244 310 307 270 260 265 341 7 166 266 197 142 198 154 167 161 332 90 251 236 179 125 122 137 147 152 171 185 188 191 191 186
227 226 226 238 237 217 217 231 213 204 201 203 194 184 181 182 178 177 169 164 161 160 157 157 155 151 157 158 164 195 348 115 186 141 138 135 128 122 134 155 151 142 129 136 135 134 118 123 121 115 48 221 16 307 354 242 316 315 308 307 271 311 278 252 24 252 142 185 138 131 138 269 306 68 231 214 160 151 141 154 162 172 175 184 192 195 198 200
230 230 230 232 235 225 214 221 232 211 203 201 192 187 180 179 178 180 171 164 161 159 159 158 159 153 138 165 188 184 293 168 155 147 140 143 149 153 142 143 67 119 135 135 119 105 137 135 122 90 165 27 245 320 297 28 326 292 298 289 292 333 295 222 199 235 224 215 145 149 74 295 221 224 238 259 139 139 154 162 173 182 184 187 193 198 203 206
235 232 235 235 236 224 208 210 222 215 205 199 189 188 181 175 180 177 168 165 160 159 161 160 157 150 137 173 198 309 286 143 127 122 110 82 87 66 81 65 64 58 101 129 125 111 123 136 121 107 149 119 171 167 282 326 312 312 256 198 300 329 297 255 110 337 149 252 149 130 204 243 232 233 263 157 138 117 132 172 183 188 186 191 192 201 213 214
239 234 234 237 238 230 215 206 215 209 202 198 188 184 178 174 177 176 167 164 158 160 161 160 151 152 155 140 349 295 313 133 116 119 128 125 97 70 75 64 69 63 76 98 100 112 100 129 111 108 112 114 260 317 326 318 278 268 274 142 203 142 260 285 166 160 164 187 143 106 210 267 256 246 228 189 161 151 168 188 191 193 192 193 198 205 212 218
246 237 235 237 239 232 221 213 212 209 197 201 185 184 176 177 181 180 168 158 160 158 159 152 155 129 169 132 348 291 189 115 133 151 151 125 112 84 93 82 71 77 78 105 115 95 114 104 98 105 96 146 66 9 314 332 320 277 258 261 5 165 281 295 14 154 178 284 84 121 256 240 256 251 233 202 177 168 177 187 193 197 200 200 202 210 216 222
240 239 237 238 240 236 225 218 217 210 197 199 188 181 179 173 175 158 172 155 156 156 152 150 175 148 129 161 187 124 133 151 170 150 174 134 137 130 124 88 90 85 88 70 92 105 81 109 95 170 127 94 359 347 305 319 303 261 199 277 213 125 238 347 228 214 167 107 9 170 210 318 279 262 272 201 169 185 180 192 197 203 206 205 209 213 219 228
246 244 240 238 240 236 225 216 218 213 198 190 188 180 177 173 160 157 164 153 153 156 158 155 153 146 166 18 104 161 164 123 126 85 107 61 108 124 109 98 86 89 73 73 81 95 16 68 245 49 19 121 91 105 275 272 268 280 19 213 208 179 210 254 307 271 201 138 206 255 217 234 244 314 320 194 186 174 191 199 205 207 206 209 211 217 220 222
250 251 243 236 235 235 224 212 214 211 197 185 180 174 170 165 159 156 158 144 105 103 82 42 119 120 60 259 173 180 142 124 154 133 87 113 118 121 124 118 110 102 107 92 336 90 300 72 184 159 108 143 154 199 201 224 206 223 218 250 280 318 211 201 165 242 133 257 194 206 243 264 271 297 302 225 225 187 198 198 202 204 208 211 211 216 223 224
248 249 247 238 232 231 221 211 207 204 190 178 175 171 162 146 152 151 136 134 130 154 160 182 163 190 167 188 151 121 147 144 111 123 126 119 117 96 74 98 124 127 132 139 191 128 163 69 53 122 190 185 200 200 210 234 216 201 181 200 187 188 224 222 241 282 174 180 221 195 213 235 249 262 286 201 196 203 220 218 229 228 228 228 221 224 223 225
250 248 246 241 231 227 219 209 203 200 178 173 170 165 164 168 169 160 182 158 169 138 35 165 171 71 64 120 136 121 105 135 129 332 136 146 120 108 100 123 116 55 145 171 131 177 157 157 190 201 205 190 189 201 212 232 246 272 278 196 214 196 257 251 259 263 301 140 223 213 226 240 259 245 240 205 155 240 243 229 224 224 217 219 225 223 224 225
249 246 244 241 230 225 217 206 205 197 178 170 164 172 184 159 168 151 156 102 60 342 132 140 91 146 152 153 137 135 134 101 101 145 158 151 128 118 149 124 146 139 272 153 140 151 158 194 215 213 173 180 182 180 215 229 228 240 254 225 238 202 213 220 196 352 325 172 243 218 250 263 256 263 254 211 151 229 223 222 227 226 221 220 218 225 225 227
243 242 242 237 233 221 216 209 204 203 178 168 172 190 186 184 310 171 145 156 49 343 136 125 116 69 73 116 147 131 106 114 120 148 186 165 162 133 173 152 162 149 126 104 96 114 190 209 215 177 128 129 182 213 229 218 229 228 229 241 233 241 258 304 298 327 319 155 259 32 213 252 255 255 192 193 207 230 219 213 216 209 218 222 220 227 231 234
238 241 239 235 230 218 213 210 206 194 174 167 178 195 203 195 217 66 50 72 65 19 104 90 88 127 120 145 164 145 132 158 164 177 175 180 163 151 154 156 159 146 141 157 163 157 198 236 103 140 132 167 203 225 233 235 233 227 227 184 229 216 154 248 289 351 356 123 271 191 204 270 284 295 253 230 209 235 229 219 242 225 219 217 215 211 213 219
237 238 241 237 229 214 208 210 202 192 183 174 178 187 172 164 177 149 116 115 126 26 58 81 91 100 131 140 200 155 154 166 138 173 185 168 161 144 143 156 135 149 169 182 175 176 174 69 104 123 170 196 207 227 236 229 243 234 213 210 219 201 231 146 207 117 276 21 90 83 6 302 267 269 288 262 213 239 262 246 257 252 241 245 284 283 226 220
236 238 241 238 227 207 204 202 202 201 182 174 182 147 160 188 165 189 110 100 28 53 253 49 87 100 152 298 58 114 31 93 176 159 166 168 135 136 168 130 137 174 171 176 137 195 218 7 125 154 177 185 205 238 235 217 245 255 229 206 217 199 200 239 125 115 75 272 274 162 300 274 274 251 236 250 64 223 236 227 246 242 235 236 242 237 229 233
238 237 240 237 223 204 191 205 207 191 173 178 174 173 170 185 171 220 105 89 93 150 218 159 185 177 171 133 89 134 98 70 101 144 154 183 129 139 133 160 172 173 157 158 172 191 179 165 157 173 180 185 203 232 243 185 231 233 257 192 217 204 186 142 155 121 186 200 273 28 195 265 324 266 234 250 278 254 284 234 246 247 242 229 233 231 224 220
241 238 236 234 218 191 184 224 181 159 173 187 144 159 164 190 226 262 133 32 160 186 141 18 128 128 140 172 133 143 153 184 81 119 151 245 147 173 134 161 87 66 127 135 47 226 161 185 142 170 183 191 207 226 232 193 210 238 249 182 199 178 155 195 162 176 206 271 296 53 133 204 274 272 271 308 250 264 273 261 256 250 240 235 231 227 225 222
243 238 234 229 213 188 210 178 158 176 188 151 148 151 176 194 359 36 78 152 198 123 166 152 159 5 109 179 140 149 233 132 127 211 205 264 120 147 144 172 167 157 156 150 197 58 156 178 169 177 184 195 215 213 223 184 209 225 234 167 189 187 188 174 174 174 193 157 257 242 250 220 252 264 315 324 292 273 255 247 246 243 237 235 232 229 227 224
244 234 228 221 206 195 199 189 175 178 156 132 134 149 138 85 78 126 164 171 103 101 90 102 263 81 102 87 94 350 127 157 124 160 158 93 347 155 146 164 119 141 166 176 142 175 220 183 169 175 174 207 211 223 217 182 212 254 135 75 69 56 60 144 167 143 72 162 240 206 191 205 278 270 303 348 235 263 258 246 238 234 233 228 230 236 230 228
244 231 219 209 199 194 197 219 200 134 132 142 135 124 123 100 79 184 165 211 154 140 171 164 170 160 153 147 132 166 141 152 100 118 150 150 166 94 66 127 124 136 159 230 282 192 169 28 155 180 209 218 177 236 203 200 213 105 124 76 25 35 64 34 67 97 65 243 236 196 207 184 265 235 205 182 212 207 235 265 275 263 250 230 223 224 220 216
242 221 209 195 196 181 172 199 169 145 133 128 125 136 124 126 171 158 175 155 99 89 92 153 133 150 150 152 140 213 135 133 133 148 151 173 100 128 125 106 117 110 132 185 241 200 93 119 155 236 97 114 135 244 110 235 155 152 157 129 71 357 25 50 346 58 191 247 255 276 191 154 213 294 265 230 257 224 211 228 247 268 265 251 241 236 227 218
234 208 196 187 188 169 183 177 159 140 144 140 132 143 147 135 341 197 151 155 148 177 155 144 153 154 159 160 130 159 149 126 151 159 160 172 163 166 177 165 159 144 188 189 200 209 237 196 249 119 213 167 169 170 316 67 209 227 123 142 173 230 87 243 110 209 215 214 295 17 171 21 245 228 249 276 266 251 214 222 240 254 268 252 236 226 221 219
213 194 183 185 172 167 193 154 152 146 140 145 131 158 159 168 173 154 111 168 185 162 183 156 160 161 161 137 143 121 124 146 167 166 156 161 158 181 197 170 177 158 180 175 136 145 281 278 217 220 114 205 167 192 157 192 217 188 196 174 179 171 187 195 237 325 334 283 278 11 334 278 273 285 249 255 255 229 224 232 241 249 256 263 252 228 215 213
191 179 179 176 171 170 131 142 148 149 144 151 137 146 162 182 168 51 153 188 157 162 139 152 145 142 153 155 166 161 130 186 163 163 158 156 167 179 213 232 178 175 80 146 172 179 151 208 234 174 205 160 193 212 200 166 165 210 17 182 180 147 167 206 190 193 213 199 275 282 111 233 138 238 243 225 271 317 255 251 250 252 254 263 262 214 206 212
175 173 169 165 161 149 147 154 148 156 140 147 147 166 172 160 121 156 156 140 117 125 124 133 139 144 158 69 41 335 66 133 194 152 166 163 184 185 191 198 189 151 136 136 217 113 204 206 317 155 165 140 187 206 118 112 158 209 198 63 171 219 150 166 204 148 174 142 15 237 206 192 178 263 283 268 289 292 257 275 258 250 272 249 208 203 204 203
162 171 160 159 155 161 152 153 154 152 151 148 157 176 186 171 160 173 174 150 145 143 130 127 140 143 137 129 136 184 345 113 175 145 181 189 186 186 187 180 180 176 168 171 160 174 151 227 340 32 51 153 179 135 211 172 202 197 131 210 220 73 104 95 57 79 103 49 248 150 315 291 302 317 294 337 330 280 301 275 268 254 273 249 232 222 208 202
160 140 160 160 158 159 155 155 154 149 150 155 163 178 188 157 267 162 148 158 159 140 144 144 177 155 161 158 178 180 162 101 160 154 182 174 216 213 193 206 175 180 182 135 152 257 161 179 35 143 174 291 172 157 155 183 157 86 197 233 177 158 119 140 209 353 62 188 252 93 208 281 112 244 337 343 311 266 272 255 257 279 257 234 230 214 209 207
147 148 127 155 162 157 156 158 153 155 151 158 180 170 359 142 287 126 135 116 117 145 151 152 162 164 167 158 178 172 185 150 179 172 176 178 235 195 198 200 180 183 177 172 138 220 128 76 260 303 150 187 91 112 88 272 194 196 204 206 152 217 230 280 110 226 185 232 262 307 281 275 185 226 352 247 230 255 245 235 273 257 231 231 228 228 231 239
139 141 155 162 159 155 159 156 150 161 153 169 180 163 239 178 167 137 155 147 156 156 157 188 145 209 163 176 166 167 164 166 169 174 153 204 207 185 195 184 195 162 169 158 158 181 178 126 299 316 154 194 63 123 208 192 225 217 127 225 253 126 214 151 204 172 135 252 61 290 77 234 210 223 202 250 226 234 244 196 230 234 230 222 218 213 209 209
144 151 157 158 156 155 153 153 147 167 163 180 173 196 182 137 191 154 157 149 159 155 189 159 184 145 174 169 162 160 184 161 167 178 179 180 192 219 189 182 177 176 170 165 178 162 194 109 166 260 281 113 187 193 209 172 173 180 181 200 223 324 234 104 37 134 183 184 191 192 290 273 254 217 197 229 239 231 205 218 223 228 228 221 217 208 207 208
138 118 116 157 154 148 141 142 161 171 171 166 160 149 180 153 126 154 157 161 140 3 139 169 163 171 161 143 172 170 152 163 168 168 181 145 182 166 203 185 164 166 140 166 171 180 153 176 172 140 107 208 218 345 170 174 183 182 179 206 174 119 118 190 238 51 88 120 224 133 250 271 266 205 203 218 237 169 204 218 240 245 239 223 217 216 204 206
145 157 157 161 152 148 143 146 150 159 160 168 171 161 155 125 135 160 155 170 155 155 61 128 167 154 156 165 161 174 157 167 179 173 198 168 197 194 178 162 161 159 163 182 174 216 145 116 105 166 213 191 197 56 172 137 114 191 176 245 193 168 120 121 218 242 47 272 103 165 65 271 247 226 233 254 324 263 266 225 248 245 231 226 220 210 208 207
152 122 111 153 162 148 142 138 143 158 116 162 62 22 76 135 149 165 156 173 165 175 130 162 172 141 218 161 161 151 166 158 172 186 178 185 191 186 173 161 148 161 165 150 116 191 103 114 98 321 323 308 308 209 109 129 138 310 269 172 136 210 194 185 179 180 166 158 360 287 244 252 286 274 255 263 270 281 271 243 247 266 248 234 218 202 194 193
122 134 139 173 172 162 149 169 164 143 137 106 133 155 321 135 145 157 169 177 167 170 160 156 154 196 157 167 156 164 173 126 218 173 145 92 175 197 155 158 154 172 171 189 178 183 147 229 135 116 46 356 342 346 324 338 138 206 201 222 188 76 66 143 96 81 168 219 190 159 242 282 269 318 303 286 289 286 269 253 211 247 251 226 214 205 190 188
109 94 120 158 196 190 171 164 152 158 151 152 163 155 137 85 180 174 169 171 127 146 137 175 171 158 155 159 170 162 179 157 150 228 104 178 172 93 175 161 172 177 192 167 163 150 178 176 148 163 175 182 191 199 208 208 207 174 74 302 222 161 153 131 213 144 205 274 141 185 254 250 272 315 315 306 311 297 270 255 254 227 242 216 207 196 190 187
157 136 158 158 173 199 40 354 161 154 152 156 167 177 121 132 177 183 148 158 109 79 95 110 49 116 139 158 154 163 180 276 155 174 156 157 150 219 195 178 174 185 168 150 147 146 167 154 181 191 188 199 201 59 83 97 87 207 228 154 221 243 224 144 98 129 202 208 188 228 178 237 274 267 277 286 307 259 282 310 272 260 256 251 211 195 193 196
130 139 160 151 112 167 101 112 149 152 162 161 157 158 163 164 150 169 217 165 225 141 105 133 148 145 169 155 164 173 179 91 27 150 177 162 157 125 121 179 180 160 141 138 157 112 121 183 204 200 204 208 133 157 159 135 170 201 182 220 211 181 183 177 204 232 169 116 266 248 195 194 237 255 266 273 269 277 271 277 299 308 272 214 197 178 172 188
140 165 150 161 148 156 140 144 154 164 146 164 133 122 156 148 162 167 170 298 152 168 129 349 169 169 168 173 161 166 168 155 150 169 158 165 105 93 117 206 174 173 151 160 173 162 169 209 202 178 210 178 181 166 163 161 187 193 199 202 204 198 184 194 222 226 166 206 236 229 186 210 231 228 240 248 232 223 276 280 240 222 168 136 137 162 192 204
106 86 109 58 151 160 164 146 153 158 156 168 87 148 156 166 179 178 160 154 149 194 164 162 184 175 176 172 161 161 167 144 208 175 166 173 165 150 140 94 263 189 163 150 190 187 154 220 166 177 177 169 205 180 185 178 193 190 194 205 210 200 207 210 223 224 212 226 235 237 205 227 221 238 228 243 231 239 274 289 43 138 180 172 172 196 205 209
162 151 165 62 71 153 136 151 156 155 169 174 151 188 167 176 174 152 110 153 171 192 184 171 181 179 172 169 170 170 183 184 174 176 188 161 165 165 173 175 149 142 190 170 165 293 170 234 140 139 150 190 359 348 218 213 195 201 206 202 203 208 215 219 224 234 235 250 254 304 258 263 243 225 243 259 236 274 283 274 228 221 165 182 196 212 218 218
114 25 153 144 113 140 133 149 160 165 162 177 169 176 155 177 178 166 166 286 186 177 186 181 169 167 172 175 183 188 187 190 175 174 162 159 173 187 158 233 156 159 164 139 157 121 99 177 56 126 165 220 343 152 189 196 225 227 236 226 218 210 213 216 221 219 217 230 233 242 251 252 250 229 252 250 252 204 233 251 238 215 194 188 204 220 222 226
72 41 69 121 130 156 147 147 156 153 178 186 158 183 173 185 169 152 147 39 85 183 148 132 150 145 183 179 197 199 185 151 143 120 146 102 75 65 67 132 153 152 154 121 18 122 134 127 134 132 168 245 253 122 140 122 184 278 242 222 210 220 217 218 222 211 211 209 218 225 238 238 231 198 222 236 199 225 237 240 239 213 204 198 209 218 224 226